Regional Weather Roundup
Issued by NWS Portland, ME

Home | Current Version | Previous Version | Text Only | Print | Product List | Glossary On
Versions: 1 2 3 4 5 6 7 8 9 10 11 12 13 14 15 16 17 18 19 20 21 22 23 24 25 26 27 28 29 30 31 32 33 34 35 36 37 38 39 40 41 42 43 44 45 46 47 48 49 50
712
ASUS41 KGYX 291205
RWRGYX
WEATHER ROUNDUP FOR MAINE AND NEW HAMPSHIRE
NATIONAL WEATHER SERVICE GRAY ME
800 AM EDT WED MAR 29 2017

MEZ002-005-006-010-012-015-018-020-021-024-026-027-029-291300-
MAINE

CITY           SKY/WX    TMP DP  RH WIND       PRES   REMARKS
PORTLAND       CLOUDY    36  33  89 N8        30.01R
6HR MIN TEMP:  34; 6HR MAX TEMP:  36; 6HR PCP:  0.04;

SANFORD        CLOUDY    35  34  96 N7        30.01S
BAR HARBOR     CLOUDY    34  33  96 N8        30.00S
WISCASSET      CLOUDY    36  34  92 VRB5      30.02S
6HR MIN TEMP:  34; 6HR MAX TEMP:  36; 6HR PCP:  0.01;

ROCKLAND       CLOUDY    35  33  92 VRB5      30.00R
FRYEBURG       MOSUNNY   38  35  89 N5        30.01R
6HR MIN TEMP:  32; 6HR MAX TEMP:  38; 6HR PCP: TRACE;

LEWISTONAUBURN CLOUDY    35  34  96 N10       30.01S
AUGUSTA        CLOUDY    34  31  88 N8        30.01S
6HR MIN TEMP:  33; 6HR MAX TEMP:  34; 6HR PCP:  0.01;

WATERVILLE     CLOUDY    35  34  96 N6        29.98S
BANGOR         CLOUDY    33  32  96 N12       30.01F
6HR MIN TEMP:  33; 6HR MAX TEMP:  34;

GREENVILLE       N/A     29  29 100 N7        29.95F
6HR MIN TEMP:  29; 6HR MAX TEMP:  31;

MILLINOCKET    CLOUDY    32  31  96 VRB3      30.03S
6HR MIN TEMP:  32; 6HR MAX TEMP:  32; 6HR PCP: TRACE;

HOULTON        CLOUDY    30  29  96 N8        30.01S
6HR MIN TEMP:  30; 6HR MAX TEMP:  31; 6HR PCP: TRACE;

PRESQUE ISLE   CLOUDY    29  27  92 N7        30.04S
6HR MIN TEMP:  28; 6HR MAX TEMP:  30; 6HR PCP: TRACE;

FRENCHVILLE    CLOUDY    27  24  89 NE3       30.01S FOG
6HR MIN TEMP:  26; 6HR MAX TEMP:  27;

CARIBOU        CLOUDY    28  25  88 N7        30.02S
6HR MIN TEMP:  28; 6HR MAX TEMP:  30; 6HR PCP: TRACE;

$$

NHZ002-005-008-009-011-012-014-291300-
NEW HAMPSHIRE

CITY           SKY/WX    TMP DP  RH WIND       PRES   REMARKS
PORTSMOUTH     CLOUDY    36  35  96 N6        30.00R
ROCHESTER      CLOUDY    37  34  89 N7        29.99S
6HR MIN TEMP:  35; 6HR MAX TEMP:  36; 6HR PCP:  0.02;

NASHUA         CLOUDY    38  37  97 NW5       30.02R
MANCHESTER     CLOUDY    39  34  82 NW5       30.00R
6HR MIN TEMP:  37; 6HR MAX TEMP:  39; 6HR PCP:  0.02;

CONCORD        CLOUDY    38  35  89 NW6       30.01S
6HR MIN TEMP:  36; 6HR MAX TEMP:  38; 6HR PCP:  0.03;

LACONIA        CLOUDY    36  35  96 NW7       30.01R
PLYMOUTH       FAIR      39  30  70 CALM      30.01F
BERLIN         CLOUDY    35  24  64 NW7       30.03R
6HR MIN TEMP:  35; 6HR MAX TEMP:  37;

WHITEFIELD     CLOUDY    35  28  75 CALM      30.04S
6HR MIN TEMP:  34; 6HR MAX TEMP:  37;

JAFFREY        CLOUDY    37  33  85 VRB6      30.00R
6HR MIN TEMP:  36; 6HR MAX TEMP:  37;

KEENE          SUNNY     39  33  79 N8        30.03S
LEBANON        CLOUDY    38  34  85 N5        30.04S
6HR MIN TEMP:  36; 6HR MAX TEMP:  38;

MT WASHINGTON  NOT AVBL
$$

VTZ005-007-008-291300-
VERMONT

CITY           SKY/WX    TMP DP  RH WIND       PRES   REMARKS
ST JOHNSBURY     N/A     36  32  85 MISG      30.04S
MONTPELIER     CLOUDY    33  33 100 NW8       30.08S
BURLINGTON     CLOUDY    36  32  85 N6        30.12R
$$

MAZ007-012-024-CTZ003-RIZ002-NYZ038-NYZ072-291300-
SOUTHERN NEW ENGLAND AND NY

CITY           SKY/WX    TMP DP  RH WIND       PRES   REMARKS
BOSTON         DRIZZLE   37  37 100 N10       30.01R FOG
WORCESTER      CLOUDY    37  32  82 N13       29.98R
NANTUCKET      CLOUDY    40  37  89 N22G28    29.92R
PROVIDENCE     CLOUDY    40  36  86 N14       29.99R
HARTFORD       PTSUNNY   41  38  89 N8        30.03R
ALBANY         LGT RAIN  39  35  86 N7        30.10S FOG
NEW YORK CITY  PTSUNNY   46  38  73 N8        30.04R
$$

ANZ081-ANZ082-ANZ150-NHZ014-MEZ023>029-291300-
COASTAL MARINE OBSERVATIONS

STATION/POSITION TIME  TEMP    WIND        PRES    WAVE
                       AIR SEA DIR/SP/G            HT/PER
                 (UTC) (F)     (DEG/KT/KT) (MB)    (FT/S)
MOUNT DESERT ROC 1200   35                 1015.0R
MATINICUS ROCK   1100   35     360/ 15/ 16 1014.4R
ISLE OF SHOALS   1100   36     350/ 12/ 14 1015.5R
JEFFREYS LEDGE   1106      41                N/A     4/ 4
CASHES LEDGE BUO 1150   36 40              1014.7R   5/ 8
GEORGES BANK BUO 1050   44 40              1006.8    6/ 8
$$

.............KEY..............
   WCI - WIND CHILL
   TC  - TEMPERATURE IN CELSIUS
   VSB - VISIBILITY IN MILES
   HX  - HEAT INDEX
   FAIR- INDICATES FEW OR NO CLOUDS BELOW 12,000 FT, WITH NO
         SIGNIFICANT WEATHER AND/OR OBSTRUCTIONS TO VISIBILITY.






USA.gov is the U.S. government's official web portal to all federal, state and local government web resources and services.